Location: Newark
(40.7636°N, 73.9728°W)
Time: 02:02:38
(UTC+00:00)

ISS - Pass Details

Date: 01 October 2019
Orbit: 411 x 421 km, 51.6° (Epoch: 23 October)

Event Time Altitude Azimuth Distance (km) Brightness Sun altitude
Rises 23:07:09 0° 303° (WNW) 2,346 1.2 -6.3°
Reaches altitude 10° 23:10:13 10° 334° (NNW) 1,483 -0.6 -6.9°
Maximum altitude 23:11:47 13° 2° (N) 1,327 -1.2 -7.2°
Drops below altitude 10° 23:13:22 10° 31° (NNE) 1,482 -1.3 -7.5°
Enters shadow 23:15:04 - 51° (NE) 1,911 -0.9 -7.8°
